Weather in Fecamp

France     49°45′18″N   0°22′49″E
temp.,
°C
wind,
m/s
gust,
m/s
humid.,
%
clouds,
%
prec.,
mm/h
press.,
hPa
HPBL,
m
8 may, sat
sat823:00+6se487391 0.0 1017121
02:00+8sse5106974 0.0 1015223
05:00+9sse61370100 0.1 1012428
08:00+10s71491100 0.3 1011486
11:00+11s81795100 0.9 1009554
14:00+18ssw10156775 0.9 10081168
17:00+20sw813661 0.0 10061566
20:00+17ssw7137159 0.0 1006713
9 may, sun
sun923:00+12sse5109283 0.0 1005140
02:00+12s41195100 0.2 1004201
05:00+12sse4896100 0.1 1001139
08:00+13s5109695 0.2 1000263
11:00+16ssw5993100 0.4 1000613
14:00+19ssw61177100 0.5 9991091
17:00+19s81382100 1.3 9971079
20:00+17s91683100 2.5 997787
10 may, mon
mon1023:00+11w3698100 0.6 998169
02:00+10sw3497100 2.9 999120
05:00+9ssw61293100 0.5 1000403
08:00+9ssw8159387 0.5 1002731
11:00+12ssw813799 0.0 10041013
14:00+15sw8116184 0.1 10051806
17:00+15sw4865100 0.3 10051377
20:00+13ssw247615 0.8 1006126
11 may, tue
tue1123:00+9s46855 0.1 100874
02:00+8s478831 0.1 1008104
05:00+7s349078 0.0 100851
08:00+9sw1286100 0.0 100864
11:00+12ene2275100 0.0 1008393
14:00+13nw3273100 0.1 1009785
17:00+12w677495 0.1 1009641
20:00+10w1390100 1.2 1011156
12 may, wed
wed1223:00+8ssw2290100 0.1 101326
02:00+7sw459098 0.1 101365
05:00+7wsw4895100 0.0 1013187
08:00+9sw589636 0.0 1014409
11:00+11wsw678275 0.0 1014776
14:00+13wsw677434 0.1 1014951
17:00+14w557222 0.1 1013949
20:00+12nw228147 0.1 1014216